Location: Unspecified
(33.2407°S, 0.0000°E)
Time: 16:17:58
(UTC+00:00)

N. Korean satellite - Visible Passes

Search period start: 19 May 2019 00:00
Search period end: 29 May 2019 00:00
Orbit: 457 x 508 km, 97.2° (Epoch: 18 May)

Date Brightness Start Highest point End Pass type
(mag) Time Alt. Az. Time Alt. Az. Time Alt. Az.
19 May 7.1 05:51:20 10° NNW 05:54:30 34° W 05:57:43 10° SSW visible
19 May 9.5 18:55:43 10° SSW 18:58:09 17° WSW 19:00:36 10° WNW visible
20 May 6.3 05:26:01 10° N 05:29:28 86° WNW 05:33:00 10° SSW visible
20 May 8.2 18:29:56 10° S 18:33:20 35° WSW 18:36:44 10° NW visible
21 May 7.9 05:01:20 10° NE 05:04:33 38° ESE 05:07:48 10° S visible
21 May 6.7 18:04:42 10° S 18:08:25 83° WSW 18:12:08 10° NNW visible
22 May 9.3 04:37:21 10° ENE 04:39:43 18° ESE 04:42:06 10° SSE visible
22 May 8.0 06:10:28 10° NW 06:12:58 19° W 06:15:31 10° SW visible
22 May 7.1 17:39:54 10° SSE 17:43:26 41° E 17:46:58 10° N visible
23 May 6.8 05:44:35 10° N 05:47:53 42° W 05:51:15 10° SSW visible
23 May 9.2 18:48:50 10° SSW 18:51:39 20° WSW 18:54:27 10° WNW visible
24 May 6.6 05:19:26 10° NNE 05:22:53 76° ESE 05:26:01 13° S visible
24 May 7.8 18:23:14 10° S 18:26:48 43° WSW 18:30:20 10° NNW visible
25 May 8.3 04:54:53 10° NE 04:57:58 31° ESE 05:00:39 13° SSE visible
25 May 6.6 17:58:06 10° SSE 18:01:52 80° ENE 18:05:35 10° N visible
26 May 9.5 04:31:09 10° ENE 04:33:09 15° ESE 04:35:09 10° SE visible
26 May 7.7 06:03:31 10° NNW 06:06:19 23° W 06:09:11 10° SW visible
26 May 7.4 17:33:24 10° SSE 17:36:50 34° E 17:40:15 10° NNE visible
26 May 9.8 19:08:22 10° SW 19:09:53 12° WSW 19:11:24 10° W visible
27 May 6.6 05:37:51 10° N 05:41:14 54° W 05:44:15 13° SSW visible
27 May 8.9 18:42:00 10° SSW 18:45:05 25° WSW 18:48:10 10° NW visible
28 May 7.0 05:12:50 10° NNE 05:16:15 59° ESE 05:18:55 16° S visible
28 May 7.4 18:16:32 10° S 18:20:13 54° WSW 18:23:52 10° NNW visible
